,,PA_Meas_PMT16A,,PR_Meas_QMR101_102,,RH_Meas_QMH101,,SR_Meas_QMS101,,TA_Meas_QMH101,,GenWind,,GenWind,
time,status,PA,status,PR,status,RH,status,SR,status,TA,status,DirAvg,status,SpdAvg,
2014-06-10, 00:00:05,VALID,915.468,VALID,0,VALID,96.947,VALID,0,VALID,20.834,VALID,148,VALID,0.709375,
2014-06-10, 00:01:05,VALID,915.437,VALID,0,VALID,96.9698,VALID,0,VALID,20.8535,VALID,148,VALID,0.367969,
2014-06-10, 00:02:05,VALID,915.442,VALID,0,VALID,96.9622,VALID,0,VALID,20.834,VALID,148,VALID,0.488281,
2014-06-10, 00:03:05,VALID,915.428,VALID,0,VALID,96.9698,VALID,0,VALID,20.8535,VALID,148,VALID,0.275,
2014-06-10, 00:04:05,VALID,915.407,VALID,0,VALID,96.9698,VALID,0,VALID,20.8535,VALID,148,VALID,0.214453,
2014-06-10, 00:05:05,VALID,915.39,VALID,0,VALID,96.9546,VALID,0,VALID,20.8535,VALID,148,VALID,0.378906,
2014-06-10, 00:06:05,VALID,915.365,VALID,0,VALID,96.9775,VALID,0,VALID,20.8535,VALID,148,VALID,0.314453,
2014-06-10, 00:07:05,VALID,915.365,VALID,0,VALID,96.9775,VALID,0,VALID,20.8535,VALID,148,VALID,0,
2014-06-10, 00:08:05,VALID,915.379,VALID,0,VALID,96.9698,VALID,0,VALID,20.873,VALID,148,VALID,0,
2014-06-10, 00:09:05,VALID,915.372,VALID,0,VALID,96.9546,VALID,0,VALID,20.873,VALID,148,VALID,0,
2014-06-10, 00:10:05,VALID,915.383,VALID,0,VALID,96.9851,VALID,0.107441,VALID,20.8519,VALID,148,VALID,0.16875,
2014-06-10, 00:11:05,VALID,915.391,VALID,0,VALID,96.9698,VALID,0,VALID,20.873,VALID,148,VALID,0.0257812,
2014-06-10, 00:12:05,VALID,915.356,VALID,0,VALID,96.9622,VALID,0,VALID,20.8519,VALID,148,VALID,0,
2014-06-10, 00:13:05,VALID,915.362,VALID,0,VALID,96.9851,VALID,0,VALID,20.873,VALID,148,VALID,0,
2014-06-10, 00:14:05,VALID,915.325,VALID,0,VALID,96.9622,VALID,0.107441,VALID,20.8925,VALID,148,VALID,0,
2014-06-10, 00:15:05,VALID,915.332,VALID,0,VALID,96.9698,VALID,0,VALID,20.8519,VALID,148,VALID,0,
2014-06-10, 00:16:05,VALID,915.307,VALID,0,VALID,96.9851,VALID,0,VALID,20.8535,VALID,148,VALID,0,
2014-06-10, 00:17:05,VALID,915.29,VALID,0,VALID,96.9775,VALID,0,VALID,20.8324,VALID,148,VALID,0,
2014-06-10, 00:18:05,VALID,915.297,VALID,0,VALID,96.9775,VALID,0.107441,VALID,20.8714,VALID,148,VALID,0,
2014-06-10, 00:19:05,VALID,915.286,VALID,0,VALID,96.9851,VALID,0.107441,VALID,20.8925,VALID,148,VALID,0,
2014-06-10, 00:20:05,VALID,915.273,VALID,0,VALID,96.9622,VALID,0.107441,VALID,20.8925,VALID,148,VALID,0,
2014-06-10, 00:21:05,VALID,915.265,VALID,0,VALID,96.947,VALID,0,VALID,20.9105,VALID,148,VALID,0,
2014-06-10, 00:22:05,VALID,915.273,VALID,0,VALID,96.947,VALID,0.107441,VALID,20.9105,VALID,148,VALID,0,
2014-06-10, 00:23:05,VALID,915.278,VALID,0,VALID,96.9698,VALID,0.107441,VALID,20.9511,VALID,148,VALID,0,
2014-06-10, 00:24:05,VALID,915.291,VALID,0,VALID,96.9698,VALID,0.107441,VALID,20.9706,VALID,148,VALID,0.256641,
2014-06-10, 00:25:05,VALID,915.314,VALID,0,VALID,96.9622,VALID,0,VALID,20.9901,VALID,148,VALID,0.338672,
2014-06-10, 00:26:05,VALID,915.306,VALID,0,VALID,96.9698,VALID,0,VALID,20.969,VALID,148,VALID,0.208203,
2014-06-10, 00:27:05,VALID,915.273,VALID,0,VALID,96.9546,VALID,0,VALID,20.9495,VALID,148,VALID,0.236719,
2014-06-10, 00:28:05,VALID,915.256,VALID,0,VALID,96.9851,VALID,0.107441,VALID,20.9511,VALID,148,VALID,0.084375,
2014-06-10, 00:29:05,VALID,915.263,VALID,0,VALID,96.9775,VALID,0,VALID,20.9105,VALID,148,VALID,0.164063,
2014-06-10, 00:30:05,VALID,915.277,VALID,0,VALID,96.9698,VALID,0,VALID,20.9105,VALID,148,VALID,0,
2014-06-10, 00:31:05,VALID,915.276,VALID,0,VALID,96.9851,VALID,0,VALID,20.9316,VALID,148,VALID,0,
2014-06-10, 00:32:05,VALID,915.281,VALID,0,VALID,96.9851,VALID,0.107441,VALID,20.9316,VALID,148,VALID,0.265234,
2014-06-10, 00:33:05,VALID,915.259,VALID,0,VALID,96.9698,VALID,0,VALID,20.891,VALID,148,VALID,0.0550781,
2014-06-10, 00:34:05,VALID,915.263,VALID,0,VALID,97.0003,VALID,0,VALID,20.9316,VALID,148,VALID,0.00195313,
2014-06-10, 00:35:05,VALID,915.248,VALID,0,VALID,96.9775,VALID,0.107441,VALID,20.93,VALID,148,VALID,0.205859,
2014-06-10, 00:36:05,VALID,915.19,VALID,0,VALID,96.9775,VALID,0.107441,VALID,20.9495,VALID,148,VALID,0.0726563,
2014-06-10, 00:37:05,VALID,915.217,VALID,0,VALID,96.9698,VALID,0.107441,VALID,20.9885,VALID,148,VALID,0.146484,
2014-06-10, 00:38:05,VALID,915.197,VALID,0,VALID,96.9622,VALID,0.107441,VALID,21.008,VALID,148,VALID,0,
2014-06-10, 00:39:05,VALID,915.128,VALID,0,VALID,96.9622,VALID,0.107441,VALID,21.008,VALID,148,VALID,0,
2014-06-10, 00:40:05,VALID,915.136,VALID,0,VALID,96.9622,VALID,0,VALID,21.0112,VALID,148,VALID,0,
2014-06-10, 00:41:05,VALID,915.11,VALID,0,VALID,96.9851,VALID,0,VALID,20.9316,VALID,148,VALID,0.288281,
2014-06-10, 00:42:05,VALID,915.077,VALID,0,VALID,96.9775,VALID,0,VALID,20.912,VALID,148,VALID,0.608203,
2014-06-10, 00:43:05,VALID,915.094,VALID,0,VALID,96.9927,VALID,0,VALID,20.9331,VALID,148,VALID,0.516016,
2014-06-10, 00:44:05,VALID,915.038,VALID,0,VALID,96.9775,VALID,0,VALID,20.912,VALID,148,VALID,0.425781,
2014-06-10, 00:45:05,VALID,915.039,VALID,0,VALID,96.9851,VALID,0,VALID,20.912,VALID,148,VALID,0.389453,
2014-06-10, 00:46:05,VALID,915.013,VALID,0,VALID,97.0003,VALID,0,VALID,20.8925,VALID,148,VALID,0.479297,
2014-06-10, 00:47:05,VALID,915.025,VALID,0,VALID,96.9851,VALID,0,VALID,20.912,VALID,148,VALID,0.260547,
2014-06-10, 00:48:05,VALID,915.018,VALID,0,VALID,96.9775,VALID,0,VALID,20.8925,VALID,148,VALID,0.166797,
2014-06-10, 00:49:05,VALID,915.029,VALID,0,VALID,96.9851,VALID,0,VALID,20.9136,VALID,148,VALID,0,
2014-06-10, 00:50:05,VALID,915.011,VALID,0,VALID,96.9927,VALID,0,VALID,20.8925,VALID,148,VALID,0,
2014-06-10, 00:51:05,VALID,915.011,VALID,0,VALID,96.9851,VALID,0,VALID,20.912,VALID,148,VALID,0,
2014-06-10, 00:52:05,VALID,915.033,VALID,0,VALID,96.9622,VALID,0,VALID,20.9527,VALID,148,VALID,0,
2014-06-10, 00:53:05,VALID,915.065,VALID,0,VALID,96.9851,VALID,0,VALID,20.9722,VALID,148,VALID,0,
2014-06-10, 00:54:05,VALID,915.046,VALID,0,VALID,96.9851,VALID,0,VALID,20.9511,VALID,148,VALID,0,
2014-06-10, 00:55:05,VALID,915.012,VALID,0,VALID,96.9851,VALID,0.107441,VALID,20.9495,VALID,148,VALID,0,
2014-06-10, 00:56:05,VALID,915.056,VALID,0,VALID,96.9698,VALID,0.107441,VALID,20.969,VALID,148,VALID,0,
2014-06-10, 00:57:05,VALID,915.047,VALID,0,VALID,96.9775,VALID,0.107441,VALID,20.9706,VALID,148,VALID,0,
2014-06-10, 00:58:05,VALID,915.021,VALID,0,VALID,96.9851,VALID,0.107441,VALID,20.9495,VALID,148,VALID,0,
2014-06-10, 00:59:05,VALID,915.009,VALID,0,VALID,96.9546,VALID,0.107441,VALID,20.9706,VALID,148,VALID,0,
2014-06-10, 01:00:05,VALID,915.011,VALID,0,VALID,97.0003,VALID,0.107441,VALID,20.969,VALID,148,VALID,0,
2014-06-10, 01:01:05,VALID,915.02,VALID,0,VALID,96.9775,VALID,0.107441,VALID,20.9105,VALID,148,VALID,0,
2014-06-10, 01:02:05,VALID,915.019,VALID,0,VALID,97.0003,VALID,0.107441,VALID,20.8925,VALID,148,VALID,0.136719,
2014-06-10, 01:03:05,VALID,915.02,VALID,0,VALID,96.9927,VALID,0.107441,VALID,20.8714,VALID,148,VALID,0,
2014-06-10, 01:04:05,VALID,914.982,VALID,0,VALID,97.0003,VALID,0,VALID,20.8714,VALID,148,VALID,0.250391,
2014-06-10, 01:05:05,VALID,914.98,VALID,0,VALID,96.9927,VALID,0.107441,VALID,20.912,VALID,148,VALID,0.135156,
2014-06-10, 01:06:05,VALID,914.953,VALID,0,VALID,96.9927,VALID,0.107441,VALID,20.873,VALID,148,VALID,0.212109,
2014-06-10, 01:07:05,VALID,914.969,VALID,0,VALID,97.008,VALID,0,VALID,20.8535,VALID,148,VALID,0.276563,
2014-06-10, 01:08:05,VALID,914.915,VALID,0,VALID,97.0003,VALID,0,VALID,20.834,VALID,148,VALID,0.194531,
2014-06-10, 01:09:05,VALID,914.914,VALID,0,VALID,97.0003,VALID,0,VALID,20.8535,VALID,148,VALID,0.366797,
2014-06-10, 01:10:05,VALID,914.899,VALID,0,VALID,97.008,VALID,0,VALID,20.8551,VALID,148,VALID,0.311719,
2014-06-10, 01:11:05,VALID,914.884,VALID,0,VALID,97.0003,VALID,0,VALID,20.8551,VALID,148,VALID,0.312891,
2014-06-10, 01:12:05,VALID,914.904,VALID,0,VALID,97.0308,VALID,0,VALID,20.834,VALID,148,VALID,0.434766,
2014-06-10, 01:13:05,VALID,914.822,VALID,0,VALID,97.0003,VALID,0,VALID,20.8535,VALID,148,VALID,0.278125,
2014-06-10, 01:14:05,VALID,914.818,VALID,0,VALID,97.0003,VALID,0,VALID,20.8941,VALID,148,VALID,0.255469,
2014-06-10, 01:15:05,VALID,914.809,VALID,0,VALID,96.9851,VALID,0,VALID,20.8925,VALID,148,VALID,0,
2014-06-10, 01:16:05,VALID,914.765,VALID,0,VALID,96.9851,VALID,0,VALID,20.9316,VALID,148,VALID,0,
2014-06-10, 01:17:05,VALID,914.733,VALID,0,VALID,96.9775,VALID,0,VALID,20.9511,VALID,148,VALID,0.608984,
2014-06-10, 01:18:05,VALID,914.748,VALID,0,VALID,96.9927,VALID,0,VALID,20.9511,VALID,148,VALID,0.630859,
2014-06-10, 01:19:05,VALID,914.716,VALID,0,VALID,96.9698,VALID,0,VALID,21.0096,VALID,148,VALID,0.868359,
2014-06-10, 01:20:05,VALID,914.663,VALID,0,VALID,96.9698,VALID,0,VALID,21.0291,VALID,148,VALID,0.89375,
2014-06-10, 01:21:05,VALID,914.682,VALID,0,VALID,96.9775,VALID,0,VALID,21.0291,VALID,148,VALID,0.590234,
2014-06-10, 01:22:05,VALID,914.667,VALID,0,VALID,96.9775,VALID,0,VALID,21.0291,VALID,148,VALID,0.623828,
2014-06-10, 01:23:05,VALID,914.658,VALID,0,VALID,96.9851,VALID,0,VALID,21.0096,VALID,148,VALID,0.691406,
2014-06-10, 01:24:05,VALID,914.69,VALID,0,VALID,97.0003,VALID,0,VALID,21.0096,VALID,148,VALID,0.463672,
2014-06-10, 01:25:05,VALID,914.671,VALID,0,VALID,96.9927,VALID,0,VALID,21.0096,VALID,148,VALID,0.792578,
2014-06-10, 01:26:05,VALID,914.664,VALID,0,VALID,96.9851,VALID,0,VALID,21.0307,VALID,148,VALID,0.713672,
2014-06-10, 01:27:05,VALID,914.65,VALID,0,VALID,96.9775,VALID,0,VALID,21.0096,VALID,148,VALID,0.505859,
2014-06-10, 01:28:05,VALID,914.669,VALID,0,VALID,96.9622,VALID,0,VALID,21.0291,VALID,148,VALID,0.119141,
2014-06-10, 01:29:05,VALID,914.666,VALID,0,VALID,96.9927,VALID,0,VALID,21.0307,VALID,148,VALID,0.387109,
2014-06-10, 01:30:05,VALID,914.681,VALID,0,VALID,96.9698,VALID,0,VALID,20.9901,VALID,148,VALID,0.426562,
2014-06-10, 01:31:05,VALID,914.705,VALID,0,VALID,96.9775,VALID,0,VALID,21.0096,VALID,148,VALID,0.301562,
2014-06-10, 01:32:05,VALID,914.686,VALID,0,VALID,96.9851,VALID,0,VALID,20.9901,VALID,148,VALID,0,
2014-06-10, 01:33:05,VALID,914.711,VALID,0,VALID,96.9775,VALID,0,VALID,20.9901,VALID,148,VALID,0,
2014-06-10, 01:34:05,VALID,914.685,VALID,0,VALID,96.9546,VALID,0,VALID,21.0112,VALID,148,VALID,0,
2014-06-10, 01:35:05,VALID,914.68,VALID,0,VALID,96.9775,VALID,0,VALID,21.0291,VALID,148,VALID,0,
2014-06-10, 01:36:05,VALID,914.689,VALID,0,VALID,96.9698,VALID,0,VALID,21.0486,VALID,148,VALID,0.178125,
2014-06-10, 01:37:05,VALID,914.677,VALID,0,VALID,96.9622,VALID,0,VALID,21.0681,VALID,148,VALID,0.182812,
2014-06-10, 01:38:05,VALID,914.683,VALID,0,VALID,96.9546,VALID,0,VALID,21.1087,VALID,148,VALID,0.266797,
2014-06-10, 01:39:05,VALID,914.675,VALID,0,VALID,96.9622,VALID,0,VALID,21.0681,VALID,148,VALID,0.344141,
2014-06-10, 01:40:05,VALID,914.665,VALID,0,VALID,96.9775,VALID,0.107441,VALID,21.086,VALID,148,VALID,0.291016,
2014-06-10, 01:41:05,VALID,914.662,VALID,0,VALID,96.9622,VALID,0.107441,VALID,21.0665,VALID,148,VALID,0.321484,
2014-06-10, 01:42:05,VALID,914.64,VALID,0,VALID,96.9775,VALID,0.107441,VALID,21.047,VALID,148,VALID,0.247656,
2014-06-10, 01:43:05,VALID,914.631,VALID,0,VALID,96.9927,VALID,0.107441,VALID,21.0486,VALID,148,VALID,0.148438,
2014-06-10, 01:44:05,VALID,914.605,VALID,0,VALID,96.9775,VALID,0.107441,VALID,21.047,VALID,148,VALID,0.170312,
2014-06-10, 01:45:05,VALID,914.589,VALID,0,VALID,96.9775,VALID,0.107441,VALID,21.0275,VALID,148,VALID,0.00195313,
2014-06-10, 01:46:05,VALID,914.58,VALID,0,VALID,96.9775,VALID,0.107441,VALID,21.0275,VALID,148,VALID,0.534375,
2014-06-10, 01:47:05,VALID,914.603,VALID,0,VALID,96.9698,VALID,0.107441,VALID,21.0275,VALID,148,VALID,0.455078,
2014-06-10, 01:48:05,VALID,914.611,VALID,0,VALID,96.9927,VALID,0.107441,VALID,21.0275,VALID,148,VALID,0.547266,
2014-06-10, 01:49:05,VALID,914.623,VALID,0,VALID,96.9546,VALID,0.107441,VALID,21.047,VALID,148,VALID,0.0921875,
2014-06-10, 01:50:05,VALID,914.644,VALID,0,VALID,96.9775,VALID,0.107441,VALID,21.0665,VALID,148,VALID,0,
2014-06-10, 01:51:05,VALID,914.644,VALID,0,VALID,96.9775,VALID,0.107441,VALID,21.1071,VALID,148,VALID,0.194531,
2014-06-10, 01:52:05,VALID,914.672,VALID,0,VALID,96.9546,VALID,0.107441,VALID,21.1266,VALID,148,VALID,0,
2014-06-10, 01:53:05,VALID,914.659,VALID,0,VALID,96.9698,VALID,0,VALID,21.1266,VALID,148,VALID,0.0738281,
2014-06-10, 01:54:05,VALID,914.671,VALID,0,VALID,96.9622,VALID,0.107441,VALID,21.1657,VALID,148,VALID,0,
2014-06-10, 01:55:05,VALID,914.661,VALID,0,VALID,96.9622,VALID,0,VALID,21.1461,VALID,148,VALID,0,
2014-06-10, 01:56:05,VALID,914.674,VALID,0,VALID,96.9317,VALID,0,VALID,21.1657,VALID,148,VALID,0.0800781,
2014-06-10, 01:57:05,VALID,914.679,VALID,0,VALID,96.9698,VALID,0,VALID,21.1461,VALID,148,VALID,0,
2014-06-10, 01:58:05,VALID,914.665,VALID,0,VALID,96.9546,VALID,0,VALID,21.1478,VALID,148,VALID,0,
2014-06-10, 01:59:05,VALID,914.651,VALID,0,VALID,96.947,VALID,0,VALID,21.1266,VALID,148,VALID,0,
2014-06-10, 02:00:05,VALID,914.604,VALID,0,VALID,96.9546,VALID,0,VALID,21.1461,VALID,148,VALID,0,
2014-06-10, 02:01:05,VALID,914.63,VALID,0,VALID,96.947,VALID,0,VALID,21.1266,VALID,148,VALID,0,
2014-06-10, 02:02:05,VALID,914.622,VALID,0,VALID,96.947,VALID,0,VALID,21.1071,VALID,148,VALID,0,
2014-06-10, 02:03:05,VALID,914.597,VALID,0,VALID,96.9775,VALID,0,VALID,21.0681,VALID,148,VALID,0,
2014-06-10, 02:04:05,VALID,914.605,VALID,0,VALID,96.947,VALID,0,VALID,21.0486,VALID,148,VALID,0,
2014-06-10, 02:05:05,VALID,914.568,VALID,0,VALID,96.9546,VALID,0,VALID,21.0681,VALID,148,VALID,0,
2014-06-10, 02:06:05,VALID,914.569,VALID,0,VALID,96.9775,VALID,0,VALID,21.0681,VALID,148,VALID,0,
2014-06-10, 02:07:05,VALID,914.583,VALID,0,VALID,96.9622,VALID,0,VALID,21.0681,VALID,148,VALID,0,
2014-06-10, 02:08:05,VALID,914.596,VALID,0,VALID,96.9546,VALID,0,VALID,21.0681,VALID,148,VALID,0,
2014-06-10, 02:09:05,VALID,914.583,VALID,0,VALID,96.947,VALID,0,VALID,21.0486,VALID,148,VALID,0,
2014-06-10, 02:10:05,VALID,914.607,VALID,0,VALID,96.9546,VALID,0,VALID,21.0307,VALID,148,VALID,0,
2014-06-10, 02:11:05,VALID,914.584,VALID,0,VALID,96.9698,VALID,0,VALID,21.0307,VALID,148,VALID,0,
2014-06-10, 02:12:05,VALID,914.582,VALID,0,VALID,96.9927,VALID,0,VALID,21.0291,VALID,148,VALID,0,
2014-06-10, 02:13:05,VALID,914.608,VALID,0,VALID,96.9622,VALID,0,VALID,21.0307,VALID,148,VALID,0,
2014-06-10, 02:14:04,VALID,914.557,VALID,0,VALID,96.9927,VALID,0,VALID,20.9722,VALID,148,VALID,0,
2014-06-10, 02:15:04,VALID,914.521,VALID,0,VALID,96.9775,VALID,0,VALID,20.9316,VALID,148,VALID,0,
2014-06-10, 02:16:04,VALID,914.511,VALID,0,VALID,96.9775,VALID,0,VALID,20.9316,VALID,148,VALID,0,
2014-06-10, 02:17:04,VALID,914.497,VALID,0,VALID,96.9851,VALID,0,VALID,20.9331,VALID,148,VALID,0,
2014-06-10, 02:18:04,VALID,914.528,VALID,0,VALID,96.9775,VALID,0,VALID,20.9316,VALID,148,VALID,0,
2014-06-10, 02:19:04,VALID,914.528,VALID,0,VALID,96.9775,VALID,0,VALID,20.8925,VALID,148,VALID,0,
2014-06-10, 02:20:04,VALID,914.516,VALID,0,VALID,97.0003,VALID,0,VALID,20.8925,VALID,148,VALID,0.45625,
2014-06-10, 02:21:04,VALID,914.466,VALID,0,VALID,96.9698,VALID,0,VALID,20.873,VALID,148,VALID,0.355469,
2014-06-10, 02:22:04,VALID,914.515,VALID,0,VALID,96.9698,VALID,0,VALID,20.8746,VALID,148,VALID,0.247266,
2014-06-10, 02:23:04,VALID,914.539,VALID,0,VALID,96.9851,VALID,0,VALID,20.8535,VALID,148,VALID,0.294922,
2014-06-10, 02:24:04,VALID,914.551,VALID,0,VALID,96.9622,VALID,0,VALID,20.834,VALID,148,VALID,0,
2014-06-10, 02:25:04,VALID,914.568,VALID,0,VALID,96.9851,VALID,0,VALID,20.834,VALID,148,VALID,0,
2014-06-10, 02:26:04,VALID,914.592,VALID,0,VALID,96.9851,VALID,0,VALID,20.8356,VALID,148,VALID,0,
2014-06-10, 02:27:04,VALID,914.601,VALID,0,VALID,96.9927,VALID,0,VALID,20.8145,VALID,148,VALID,0,
2014-06-10, 02:28:04,VALID,914.594,VALID,0,VALID,96.9851,VALID,0,VALID,20.8145,VALID,148,VALID,0.483594,
2014-06-10, 02:29:04,VALID,914.556,VALID,0,VALID,97.008,VALID,0,VALID,20.7966,VALID,148,VALID,0.4875,
2014-06-10, 02:30:04,VALID,914.537,VALID,0,VALID,97.0003,VALID,0,VALID,20.7755,VALID,148,VALID,0.662109,
2014-06-10, 02:31:04,VALID,914.545,VALID,0,VALID,97.0156,VALID,0,VALID,20.795,VALID,148,VALID,0.598828,
2014-06-10, 02:32:04,VALID,914.552,VALID,0,VALID,96.9927,VALID,0,VALID,20.7755,VALID,148,VALID,0.362891,
2014-06-10, 02:33:04,VALID,914.509,VALID,0,VALID,97.0156,VALID,0,VALID,20.7576,VALID,148,VALID,0.126563,
2014-06-10, 02:34:04,VALID,914.476,VALID,0,VALID,96.9927,VALID,0,VALID,20.756,VALID,148,VALID,0,
2014-06-10, 02:35:04,VALID,914.451,VALID,0,VALID,97.0156,VALID,0,VALID,20.756,VALID,148,VALID,0,
2014-06-10, 02:36:04,VALID,914.406,VALID,0,VALID,97.0003,VALID,0,VALID,20.7365,VALID,148,VALID,0,
2014-06-10, 02:37:04,VALID,914.433,VALID,0,VALID,97.0232,VALID,0,VALID,20.7365,VALID,148,VALID,0,
2014-06-10, 02:38:04,VALID,914.451,VALID,0,VALID,97.0156,VALID,0,VALID,20.6795,VALID,148,VALID,0,
2014-06-10, 02:39:04,VALID,914.458,VALID,0,VALID,97.0232,VALID,0,VALID,20.639,VALID,148,VALID,0,
2014-06-10, 02:40:04,VALID,914.422,VALID,0,VALID,97.0308,VALID,0,VALID,20.6405,VALID,148,VALID,0.590234,
2014-06-10, 02:41:04,VALID,914.421,VALID,0,VALID,97.0156,VALID,0,VALID,20.7185,VALID,148,VALID,0.769531,
2014-06-10, 02:42:04,VALID,914.41,VALID,0,VALID,97.008,VALID,0,VALID,20.6975,VALID,148,VALID,0.667578,
2014-06-10, 02:43:04,VALID,914.447,VALID,0,VALID,97.008,VALID,0,VALID,20.7185,VALID,148,VALID,0.460547,
2014-06-10, 02:44:04,VALID,914.449,VALID,0,VALID,97.0156,VALID,0,VALID,20.717,VALID,148,VALID,0.329688,
2014-06-10, 02:45:04,VALID,914.458,VALID,0,VALID,97.0156,VALID,0,VALID,20.717,VALID,148,VALID,0.142188,
2014-06-10, 02:46:04,VALID,914.478,VALID,0,VALID,97.0003,VALID,0,VALID,20.7365,VALID,148,VALID,0,
2014-06-10, 02:47:04,VALID,914.478,VALID,0,VALID,97.008,VALID,0,VALID,20.7365,VALID,148,VALID,0.564062,
2014-06-10, 02:48:04,VALID,914.45,VALID,0,VALID,97.0003,VALID,0,VALID,20.756,VALID,148,VALID,0.0191406,
2014-06-10, 02:49:04,VALID,914.419,VALID,0,VALID,97.0003,VALID,0,VALID,20.7755,VALID,148,VALID,0,
2014-06-10, 02:50:04,VALID,914.421,VALID,0,VALID,97.008,VALID,0,VALID,20.756,VALID,148,VALID,0,
2014-06-10, 02:51:04,VALID,914.412,VALID,0,VALID,97.008,VALID,0,VALID,20.756,VALID,148,VALID,0.185156,
2014-06-10, 02:52:04,VALID,914.409,VALID,0,VALID,97.0156,VALID,0,VALID,20.7755,VALID,148,VALID,0.329688,
2014-06-10, 02:53:04,VALID,914.404,VALID,0,VALID,97.008,VALID,0,VALID,20.7771,VALID,148,VALID,0.380859,
2014-06-10, 02:54:04,VALID,914.398,VALID,0,VALID,96.9927,VALID,0,VALID,20.756,VALID,148,VALID,0.0132813,
2014-06-10, 02:55:04,VALID,914.364,VALID,0,VALID,97.0232,VALID,0,VALID,20.7755,VALID,148,VALID,0,
2014-06-10, 02:56:04,VALID,914.332,VALID,0,VALID,97.008,VALID,0,VALID,20.756,VALID,148,VALID,0,
2014-06-10, 02:57:04,VALID,914.324,VALID,0,VALID,97.0156,VALID,0.107441,VALID,20.7349,VALID,148,VALID,0,
2014-06-10, 02:58:04,VALID,914.35,VALID,0,VALID,97.0232,VALID,0.107441,VALID,20.717,VALID,148,VALID,0,
2014-06-10, 02:59:04,VALID,914.331,VALID,0,VALID,97.0232,VALID,0.107441,VALID,20.717,VALID,148,VALID,0.273828,
2014-06-10, 03:00:04,VALID,914.331,VALID,0,VALID,97.0537,VALID,0,VALID,20.6959,VALID,148,VALID,0.638281,
2014-06-10, 03:01:04,VALID,914.345,VALID,0,VALID,97.0385,VALID,0.107441,VALID,20.717,VALID,149,VALID,0.483203,
2014-06-10, 03:02:04,VALID,914.356,VALID,0,VALID,97.0308,VALID,0.107441,VALID,20.7154,VALID,150,VALID,0.436719,
2014-06-10, 03:03:04,VALID,914.368,VALID,0,VALID,97.0232,VALID,0,VALID,20.756,VALID,150,VALID,0.491016,
2014-06-10, 03:04:04,VALID,914.386,VALID,0,VALID,97.008,VALID,0,VALID,20.7154,VALID,157,VALID,0.55,
2014-06-10, 03:05:04,VALID,914.418,VALID,0,VALID,97.0232,VALID,0.107441,VALID,20.7365,VALID,157,VALID,0.469531,
2014-06-10, 03:06:04,VALID,914.413,VALID,0,VALID,97.0156,VALID,0.107441,VALID,20.7365,VALID,157,VALID,0.189844,
2014-06-10, 03:07:04,VALID,914.424,VALID,0,VALID,97.008,VALID,0.107441,VALID,20.7349,VALID,157,VALID,0,
2014-06-10, 03:08:04,VALID,914.399,VALID,0,VALID,97.0156,VALID,0.107441,VALID,20.7544,VALID,157,VALID,0.0621094,
2014-06-10, 03:09:04,VALID,914.439,VALID,0,VALID,97.0003,VALID,0.107441,VALID,20.7755,VALID,157,VALID,0,
2014-06-10, 03:10:04,VALID,914.417,VALID,0,VALID,97.0232,VALID,0,VALID,20.7966,VALID,157,VALID,0.178906,
2014-06-10, 03:11:04,VALID,914.429,VALID,0,VALID,97.0156,VALID,0,VALID,20.7966,VALID,157,VALID,0.0871094,
2014-06-10, 03:12:04,VALID,914.419,VALID,0,VALID,97.0156,VALID,0,VALID,20.795,VALID,157,VALID,0,
2014-06-10, 03:13:04,VALID,914.394,VALID,0,VALID,97.0232,VALID,0,VALID,20.8356,VALID,157,VALID,0,
2014-06-10, 03:14:04,VALID,914.369,VALID,0,VALID,97.0003,VALID,0,VALID,20.8145,VALID,157,VALID,0.180859,
2014-06-10, 03:15:04,VALID,914.357,VALID,0,VALID,97.008,VALID,0,VALID,20.8161,VALID,157,VALID,0.446484,
2014-06-10, 03:16:04,VALID,914.331,VALID,0,VALID,97.0003,VALID,0,VALID,20.8145,VALID,157,VALID,0.100781,
2014-06-10, 03:17:04,VALID,914.322,VALID,0,VALID,97.0156,VALID,0,VALID,20.795,VALID,157,VALID,0.215625,
2014-06-10, 03:18:04,VALID,914.321,VALID,0,VALID,97.0232,VALID,0,VALID,20.7966,VALID,157,VALID,0.021875,
2014-06-10, 03:19:04,VALID,914.313,VALID,0,VALID,97.0156,VALID,0,VALID,20.7755,VALID,157,VALID,0.261719,
2014-06-10, 03:20:04,VALID,914.293,VALID,0,VALID,97.0003,VALID,0,VALID,20.7966,VALID,157,VALID,0.381641,
2014-06-10, 03:21:04,VALID,914.249,VALID,0,VALID,97.0232,VALID,0,VALID,20.756,VALID,156,VALID,0.538281,
2014-06-10, 03:22:04,VALID,914.25,VALID,0,VALID,97.008,VALID,0,VALID,20.7966,VALID,46,VALID,0.498437,
2014-06-10, 03:23:04,VALID,914.224,VALID,0,VALID,97.0232,VALID,0,VALID,20.7771,VALID,46,VALID,0.817578,
2014-06-10, 03:24:04,VALID,914.192,VALID,0,VALID,97.0385,VALID,0,VALID,20.7576,VALID,46,VALID,0.754297,
2014-06-10, 03:25:04,VALID,914.216,VALID,0,VALID,97.0156,VALID,0.107441,VALID,20.7739,VALID,46,VALID,0.470313,
2014-06-10, 03:26:04,VALID,914.21,VALID,0,VALID,97.008,VALID,0,VALID,20.7755,VALID,46,VALID,0.277734,
2014-06-10, 03:27:04,VALID,914.212,VALID,0,VALID,97.008,VALID,0,VALID,20.7544,VALID,46,VALID,0.00546875,
2014-06-10, 03:28:04,VALID,914.214,VALID,0,VALID,96.9927,VALID,0,VALID,20.7739,VALID,46,VALID,0,
2014-06-10, 03:29:04,VALID,914.209,VALID,0,VALID,97.0385,VALID,0,VALID,20.7755,VALID,46,VALID,0,
2014-06-10, 03:30:04,VALID,914.198,VALID,0,VALID,97.0003,VALID,0,VALID,20.756,VALID,46,VALID,0.948047,
2014-06-10, 03:31:04,VALID,914.169,VALID,0,VALID,97.0156,VALID,0,VALID,20.756,VALID,46,VALID,0.998828,
2014-06-10, 03:32:04,VALID,914.165,VALID,0,VALID,97.0003,VALID,0,VALID,20.7365,VALID,46,VALID,0.974219,
2014-06-10, 03:33:04,VALID,914.17,VALID,0,VALID,97.0003,VALID,0,VALID,20.7154,VALID,46,VALID,0.919922,
2014-06-10, 03:34:04,VALID,914.167,VALID,0,VALID,97.0003,VALID,0,VALID,20.7154,VALID,46,VALID,0.611328,
2014-06-10, 03:35:04,VALID,914.145,VALID,0,VALID,97.008,VALID,0,VALID,20.7154,VALID,46,VALID,0.523438,
2014-06-10, 03:36:04,VALID,914.137,VALID,0,VALID,97.008,VALID,0,VALID,20.717,VALID,46,VALID,0.567969,
2014-06-10, 03:37:04,VALID,914.158,VALID,0,VALID,97.0156,VALID,0,VALID,20.717,VALID,46,VALID,0.480469,
2014-06-10, 03:38:04,VALID,914.128,VALID,0,VALID,97.0003,VALID,0,VALID,20.6959,VALID,46,VALID,0.503125,
2014-06-10, 03:39:04,VALID,914.154,VALID,0,VALID,96.9775,VALID,0,VALID,20.756,VALID,46,VALID,0.385156,
2014-06-10, 03:40:04,VALID,914.141,VALID,0,VALID,97.0003,VALID,0,VALID,20.7365,VALID,46,VALID,0.276953,
2014-06-10, 03:41:04,VALID,914.159,VALID,0,VALID,96.9775,VALID,0,VALID,20.7154,VALID,46,VALID,0.171094,
2014-06-10, 03:42:04,VALID,914.151,VALID,0,VALID,96.9698,VALID,0,VALID,20.7154,VALID,46,VALID,0,
2014-06-10, 03:43:04,VALID,914.173,VALID,0,VALID,96.9775,VALID,0,VALID,20.717,VALID,46,VALID,0,
2014-06-10, 03:44:04,VALID,914.169,VALID,0,VALID,97.0003,VALID,0,VALID,20.6764,VALID,46,VALID,0,
2014-06-10, 03:45:04,VALID,914.144,VALID,0,VALID,97.0003,VALID,0,VALID,20.6975,VALID,46,VALID,0,
2014-06-10, 03:46:04,VALID,914.183,VALID,0,VALID,96.9851,VALID,0,VALID,20.678,VALID,46,VALID,0.380859,
2014-06-10, 03:47:04,VALID,914.167,VALID,0,VALID,96.9775,VALID,0,VALID,20.639,VALID,46,VALID,0.152344,